Slayton, MN

2:27 AM CST on February 26, 2017 (GMT -0600)
Slayton

Weather History for KDVP - May, 2013

Change the Weather History Date:

Saturday, May 25, 2013

  Actual Average (KOTG) Record (KOTG)
Temperature  
Mean Temperature 53 °F -  
Max Temperature 58 °F 66 °F 87 °F (1977)
Min Temperature 48 °F 48 °F 35 °F (1983)
Degree Days  
Heating Degree Days 12    
Growing Degree Days 3 (Base 50)    
Moisture  
Dew Point 50 °F    
Average Humidity 89    
Maximum Humidity 99    
Minimum Humidity 75    
Precipitation  
Precipitation 0.00 in - - ()
Sea Level Pressure  
Sea Level Pressure 30.12 in    
Wind  
Wind Speed 18 mph (ESE)    
Max Wind Speed 25 mph    
Max Gust Speed 30 mph    
Visibility 8 miles    
Events Rain    
Averages and records for this station are not official NWS values.
T = Trace of Precipitation, MM = Missing Value Source: NWS Daily Summary

Daily Weather History Graph

Daily Weather History Graph

Search for Another Location

Airport or City:

Trip Planner

Search our weather history database for the weather conditions in past years. The results will help you decide how hot, cold, wet, or windy it might be!

Date:

Astronomy

May. 25, 2013 Rise Set
Actual Time 5:47 AM CDT 8:53 PM CDT
Civil Twilight 5:12 AM CDT 9:27 PM CDT
Nautical Twilight 4:28 AM CDT 10:12 PM CDT
Astronomical Twilight 3:35 AM CDT 11:06 PM CDT
Moon 9:41 PM CDT (5/25) 6:16 AM CDT (5/25)
Length of Visible Light 16h 14m
Length of Day
15h 05m
Full, 100% of the Moon is Illuminated
May 25
Full
May 31
Last Quarter
Jun 8
New
Jun 16
First Quarter
Jun 23
Full

Hourly Weather History & Observations

Time (CDT) Temp. Dew Point Humidity Pressure Visibility Wind Dir Wind Speed Gust Speed Precip Events Conditions
12:13 AM 57.4 °F 49.5 °F 75% 30.15 in 10.0 mi SSE 19.6 mph 24.2 mph N/A   Overcast
12:33 AM 57.2 °F 49.3 °F 75% 30.15 in 10.0 mi SSE 19.6 mph 24.2 mph N/A   Overcast
12:53 AM 57.2 °F 49.3 °F 75% 30.13 in 10.0 mi SE 18.4 mph - N/A   Overcast
1:12 AM 56.5 °F 49.6 °F 78% 30.11 in 10.0 mi SE 17.3 mph - N/A   Overcast
1:33 AM 56.5 °F 49.3 °F 77% 30.11 in 10.0 mi SE 16.1 mph 21.9 mph N/A   Overcast
1:53 AM 55.9 °F 49.3 °F 78% 30.10 in 10.0 mi SE 16.1 mph - N/A   Overcast
2:14 AM 55.9 °F 49.5 °F 79% 30.11 in 10.0 mi SE 15.0 mph - N/A   Overcast
2:33 AM 55.8 °F 49.6 °F 80% 30.11 in 10.0 mi SE 12.7 mph - N/A   Overcast
2:53 AM 55.8 °F 49.1 °F 78% 30.10 in 10.0 mi ESE 13.8 mph - N/A   Overcast
3:13 AM 55.6 °F 49.1 °F 79% 30.12 in 10.0 mi SE 13.8 mph - N/A   Overcast
3:33 AM 55.4 °F 49.1 °F 79% 30.12 in 10.0 mi SE 15.0 mph - N/A   Overcast
3:54 AM 54.9 °F 49.3 °F 81% 30.11 in 10.0 mi SE 15.0 mph - N/A   Overcast
4:13 AM 54.5 °F 49.1 °F 82% 30.10 in 10.0 mi ESE 15.0 mph - N/A   Overcast
4:34 AM 54.5 °F 48.6 °F 80% 30.09 in 10.0 mi SE 16.1 mph - N/A   Overcast
4:53 AM 54.1 °F 48.7 °F 82% 30.10 in 10.0 mi SE 13.8 mph - N/A   Overcast
5:13 AM 54.0 °F 48.7 °F 82% 30.10 in 10.0 mi SE 11.5 mph - N/A   Overcast
5:33 AM 53.8 °F 48.7 °F 83% 30.10 in 10.0 mi SE 13.8 mph - N/A   Overcast
5:53 AM 54.0 °F 48.4 °F 81% 30.11 in 10.0 mi ESE 12.7 mph - N/A   Overcast
6:14 AM 53.8 °F 48.6 °F 82% 30.11 in 10.0 mi ESE 15.0 mph - N/A   Overcast
6:33 AM 53.8 °F 48.2 °F 81% 30.10 in 10.0 mi ESE 19.6 mph - N/A   Overcast
6:54 AM 53.8 °F 48.2 °F 81% 30.10 in 10.0 mi SE 19.6 mph - N/A   Overcast
7:12 AM 53.6 °F 48.6 °F 83% 30.10 in 10.0 mi SE 17.3 mph - N/A   Overcast
7:33 AM 53.6 °F 48.6 °F 83% 30.11 in 10.0 mi SE 19.6 mph 24.2 mph N/A   Overcast
7:53 AM 53.6 °F 48.9 °F 84% 30.12 in 10.0 mi SE 18.4 mph 24.2 mph N/A   Overcast
8:12 AM 53.6 °F 49.3 °F 85% 30.12 in 10.0 mi SE 18.4 mph - N/A   Overcast
8:33 AM 53.6 °F 49.3 °F 85% 30.13 in 10.0 mi ESE 13.8 mph - N/A   Overcast
8:53 AM 53.2 °F 49.1 °F 86% 30.13 in 10.0 mi SE 21.9 mph - N/A   Overcast
9:13 AM 52.7 °F 49.6 °F 89% 30.13 in 10.0 mi ESE 18.4 mph 25.3 mph N/A   Overcast
9:33 AM 53.1 °F 49.8 °F 89% 30.13 in 10.0 mi ESE 18.4 mph 26.5 mph N/A   Overcast
9:54 AM 52.7 °F 50.0 °F 91% 30.13 in 10.0 mi SE 24.2 mph 27.6 mph N/A   Overcast
10:13 AM 52.7 °F 50.0 °F 91% 30.13 in 7.0 mi SE 19.6 mph 26.5 mph N/A   Overcast
10:33 AM 52.7 °F 50.5 °F 92% 30.14 in 10.0 mi ESE 21.9 mph - N/A   Overcast
10:53 AM 52.2 °F 50.7 °F 95% 30.15 in 7.0 mi SE 25.3 mph - N/A   Overcast
11:13 AM 52.2 °F 50.9 °F 95% 30.14 in 5.0 mi SE 18.4 mph 27.6 mph N/A   Overcast
11:32 AM 52.7 °F 51.3 °F 95% 30.13 in 5.0 mi ESE 21.9 mph - N/A   Overcast
11:53 AM 53.1 °F 51.8 °F 95% 30.14 in 7.0 mi SE 23.0 mph 27.6 mph N/A   Overcast
12:13 PM 53.2 °F 51.8 °F 95% 30.14 in 7.0 mi SE 19.6 mph - N/A   Overcast
12:33 PM 53.2 °F 51.8 °F 95% 30.14 in 7.0 mi SE 18.4 mph 25.3 mph N/A   Overcast
12:53 PM 53.6 °F 52.2 °F 95% 30.14 in 7.0 mi SE 18.4 mph - N/A   Overcast
1:13 PM 54.0 °F 52.2 °F 94% 30.14 in 10.0 mi SE 15.0 mph - N/A   Overcast
1:33 PM 55.2 °F 52.9 °F 92% 30.14 in 10.0 mi SE 15.0 mph - N/A   Overcast
1:53 PM 56.1 °F 53.1 °F 89% 30.13 in 10.0 mi ESE 13.8 mph 18.4 mph N/A   Overcast
2:14 PM 56.8 °F 53.4 °F 88% 30.13 in 10.0 mi ESE 16.1 mph - N/A   Overcast
2:33 PM 57.6 °F 54.0 °F 88% 30.13 in 10.0 mi ESE 12.7 mph 17.3 mph N/A   Overcast
2:52 PM 57.4 °F 54.3 °F 90% 30.13 in 10.0 mi East 15.0 mph - N/A   Overcast
3:14 PM 58.1 °F 54.7 °F 88% 30.13 in 10.0 mi East 15.0 mph - N/A   Overcast
3:33 PM 58.1 °F 54.9 °F 89% 30.12 in 10.0 mi East 16.1 mph - N/A   Overcast
3:54 PM 57.6 °F 54.3 °F 89% 30.12 in 10.0 mi ESE 17.3 mph 24.2 mph N/A   Overcast
4:13 PM 56.7 °F 53.6 °F 89% 30.13 in 10.0 mi ESE 20.7 mph 25.3 mph N/A   Overcast
4:33 PM 55.9 °F 53.2 °F 91% 30.13 in 10.0 mi ESE 20.7 mph 26.5 mph N/A   Overcast
4:53 PM 55.4 °F 52.9 °F 91% 30.13 in 10.0 mi ESE 19.6 mph 25.3 mph N/A   Overcast
5:13 PM 54.7 °F 52.7 °F 93% 30.12 in 10.0 mi ESE 18.4 mph - N/A   Overcast
5:34 PM 54.5 °F 52.2 °F 92% 30.12 in 7.0 mi ESE 18.4 mph 23.0 mph N/A   Overcast
5:54 PM 53.6 °F 52.0 °F 94% 30.12 in 7.0 mi ESE 17.3 mph 21.9 mph N/A   Overcast
6:12 PM 52.7 °F 51.8 °F 97% 30.13 in 7.0 mi ESE 17.3 mph - N/A   Overcast
6:34 PM 52.7 °F 51.6 °F 96% 30.13 in 7.0 mi ESE 20.7 mph - N/A   Overcast
6:53 PM 52.2 °F 51.3 °F 97% 30.13 in 5.0 mi ESE 18.4 mph 21.9 mph N/A   Overcast
7:14 PM 51.8 °F 51.1 °F 97% 30.13 in 2.0 mi ESE 20.7 mph 26.5 mph N/A   Overcast
7:33 PM 51.4 °F 51.1 °F 99% 30.13 in 1.2 mi ESE 17.3 mph 25.3 mph N/A Rain Light Rain
7:53 PM 51.1 °F 50.9 °F 99% 30.13 in 1.0 mi East 15.0 mph 23.0 mph N/A   Overcast
8:13 PM 50.5 °F 50.4 °F 99% 30.14 in 2.0 mi ESE 18.4 mph 21.9 mph N/A   Overcast
8:33 PM 50.2 °F 50.0 °F 99% 30.13 in 2.0 mi ESE 19.6 mph 24.2 mph N/A Rain Light Rain
8:53 PM 49.6 °F 49.5 °F 99% 30.13 in 2.0 mi ESE 20.7 mph 25.3 mph N/A Rain Light Rain
9:13 PM 49.5 °F 49.3 °F 99% 30.13 in 3.0 mi ESE 19.6 mph 27.6 mph N/A   Overcast
9:32 PM 49.3 °F 49.1 °F 99% 30.13 in 2.0 mi ESE 20.7 mph 26.5 mph N/A Rain Light Rain
9:53 PM 49.3 °F 49.1 °F 99% 30.15 in 2.0 mi ESE 23.0 mph 29.9 mph N/A Rain Light Rain
10:13 PM 49.1 °F 48.7 °F 99% 30.15 in 2.0 mi ESE 23.0 mph 28.8 mph N/A   Overcast
10:33 PM 49.1 °F 48.7 °F 99% 30.14 in 2.5 mi ESE 23.0 mph 28.8 mph N/A   Overcast
10:54 PM 48.7 °F 48.6 °F 99% 30.14 in 2.5 mi ESE 24.2 mph 28.8 mph N/A Rain Light Rain
11:14 PM 48.7 °F 48.6 °F 99% 30.13 in 2.0 mi ESE 23.0 mph 28.8 mph N/A   Overcast
11:33 PM 48.6 °F 48.4 °F 99% 30.10 in 1.8 mi East 18.4 mph - N/A   Overcast
11:52 PM 48.4 °F 48.2 °F 99% 30.10 in 1.8 mi ESE 23.0 mph 28.8 mph N/A Rain Light Rain